Regional Weather Roundup
Issued by NWS

Home | Current Version | Previous Version | Graphics & Text | Print | Product List | Glossary On
Versions: 1 2 3 4 5 6 7 8 9 10 11 12 13 14 15 16 17 18 19 20 21 22 23 24 25 26 27
000
ASUS45 KPSR 201810
RWRAZ

ARIZONA HOURLY REGIONAL WEATHER ROUNDUP
NATIONAL WEATHER SERVICE PHOENIX AZ
1100 AM MST SUN MAY 20 2018

NOTE: FAIR INDICATES FEW OR NO CLOUDS BELOW 12,000 FEET WITH NO
SIGNIFICANT WEATHER AND/OR OBSTRUCTIONS TO VISIBILITY.

AZZ001>003-036-201900-
NORTHWEST ARIZONA

CITY           SKY/WX    TMP DP  RH WIND       PRES   REMARKS
BULLHEAD CITY  MOSUNNY   90  34  13 SW13      29.78F
KINGMAN        SUNNY     82  33  17 SW15G22   29.92F
6HR MIN TEMP:  58; 6HR MAX TEMP:  82;

$$

AZZ004>008-015-016-018-201900-
NORTH CENTRAL ARIZONA

CITY           SKY/WX    TMP DP  RH WIND       PRES   REMARKS
GRAND CANYON   SUNNY     69  15  12 VRB3G18   30.10F
6HR MIN TEMP:  36; 6HR MAX TEMP:  70;

WILLIAMS       SUNNY     70  14  11 S13G22    30.09S
PRESCOTT       SUNNY     75  24  15 SE18G24   30.02F
6HR MIN TEMP:  48; 6HR MAX TEMP:  75;

FLAGSTAFF      SUNNY     65  19  17 S13G24    30.14S
6HR MIN TEMP:  34; 6HR MAX TEMP:  67;

PAYSON         SUNNY     73  19  13 S9G16     30.06S
PAGE           SUNNY     81  35  19 VRB6      29.93F
6HR MIN TEMP:  62; 6HR MAX TEMP:  81;

$$

AZZ009>014-017-201900-
NORTHEAST ARIZONA

CITY           SKY/WX    TMP DP  RH WIND       PRES   REMARKS
WINSLOW        SUNNY     78  20  11 VRB5      30.01F
6HR MIN TEMP:  48; 6HR MAX TEMP:  81;

SAINT JOHNS    SUNNY     77  15   9 NE8       30.07F
6HR MIN TEMP:  47; 6HR MAX TEMP:  77;

WINDOW ROCK    SUNNY     74  11   9 S12G24    30.13F
6HR MIN TEMP:  36; 6HR MAX TEMP:  74;

SHOW LOW       SUNNY     73   9   8 S15G25    30.12F
$$

AZZ540-542>544-546-548-201900-
GREATER PHOENIX AREA

CITY           SKY/WX    TMP DP  RH WIND       PRES   REMARKS
PHOENIX        SUNNY     91  28  10 S8        29.83F
6HR MIN TEMP:  72; 6HR MAX TEMP:  91;

BUCKEYE        SUNNY     84  27  12 SE7       29.85F
GLENDALE       SUNNY     88  32  13 CALM      29.86F
LUKE AFB       SUNNY     87  32  14 E5        29.83F
6HR MIN TEMP:  66; 6HR MAX TEMP:  87;

DEER VALLEY    SUNNY     86  28  12 VRB5      29.85F
6HR MIN TEMP:  64; 6HR MAX TEMP:  86;

SCOTTSDALE     SUNNY     87  34  15 S9        29.87F
6HR MIN TEMP:  68; 6HR MAX TEMP:  87;

MESA-FALCON    SUNNY     86  30  13 S9        29.86F
MESA-GATEWAY   SUNNY     88  27  11 VRB7      29.87F
CHANDLER       SUNNY     88  25  10 S8        29.85F
$$

AZZ539-553-201900-
SOUTHWEST MARICOPA COUNTY AND PINAL COUNTY

CITY           SKY/WX    TMP DP  RH WIND       PRES   REMARKS
CASA GRANDE    SUNNY     87  30  13 VRB3      29.87F
6HR MIN TEMP:  60; 6HR MAX TEMP:  88;

GILA BEND      FAIR      87  16   7 NW3       29.82F
6HR MIN TEMP:  65; 6HR MAX TEMP:  88;

$$

AZZ503-504-507>509-201900-
SOUTHEAST ARIZONA

CITY           SKY/WX    TMP DP  RH WIND       PRES   REMARKS
TUCSON         SUNNY     86  20   9 SE5       29.93F
6HR MIN TEMP:  61; 6HR MAX TEMP:  86;

DAVIS-MONTHAN  SUNNY     88  20   8 CALM      29.92F
6HR MIN TEMP:  59; 6HR MAX TEMP:  88;

RYAN FIELD     SUNNY     86  27  11 CALM      29.92F
NOGALES        SUNNY     83  19   9 VRB5      29.99F
6HR MIN TEMP:  49; 6HR MAX TEMP:  84;

SIERRA VISTA   SUNNY     80   7   6 SE13      30.04
6HR MIN TEMP:  55; 6HR MAX TEMP:  81;

DOUGLAS        SUNNY     81  14   8 S14G22    30.03S
6HR MIN TEMP:  47; 6HR MAX TEMP:  81;

SAFFORD        SUNNY     85  14   7 MISG      29.94F
6HR MIN TEMP:  56; 6HR MAX TEMP:  86;

$$

AZZ532-201900-
SOUTHWEST ARIZONA

CITY           SKY/WX    TMP DP  RH WIND       PRES   REMARKS
YUMA           SUNNY     86  50  28 S14       29.81F
6HR MIN TEMP:  67; 6HR MAX TEMP:  86;

$$

CAZ041-043-047-048-061-525>527-560>570-201900-
SOUTHERN CALIFORNIA

CITY           SKY/WX    TMP DP  RH WIND       PRES   REMARKS
DOWNTOWN L.A.  CLOUDY    67  56  67 CALM      29.93F
6HR MIN TEMP:  60; 6HR MAX TEMP:  65;

L.A. AIRPORT   CLOUDY    64  55  72 SW8       29.95S
6HR MIN TEMP:  60; 6HR MAX TEMP:  64;

SAN DIEGO      CLOUDY    63  54  72 S7        29.97S
6HR MIN TEMP:  60; 6HR MAX TEMP:  64;

BURBANK        CLOUDY    64  56  75 SE10      29.93
6HR MIN TEMP:  59; 6HR MAX TEMP:  64;

ONTARIO        CLOUDY    64  54  69 SW3       29.94F
6HR MIN TEMP:  58; 6HR MAX TEMP:  64; 6HR PCP: TRACE;

RIVERSIDE      CLOUDY    65  54  67 VRB5      29.94F
6HR MIN TEMP:  59; 6HR MAX TEMP:  65;

PALM SPRINGS   SUNNY     84  48  28 CALM      29.82S
6HR MIN TEMP:  65; 6HR MAX TEMP:  85;

EL CENTRO NAS  SUNNY     86  45  23 VRB3      29.80F
6HR MIN TEMP:  62; 6HR MAX TEMP:  86;

IMPERIAL       SUNNY     86  50  28 NE7       29.78F
6HR MIN TEMP:  64; 6HR MAX TEMP:  86;

BLYTHE         SUNNY     88  42  20 S15       29.80S
6HR MIN TEMP:  67; 6HR MAX TEMP:  88;

NEEDLES        SUNNY     93  33  12 E6        29.80F
6HR MIN TEMP:  75; 6HR MAX TEMP:  94;

$$

NVZ020-UTZ003-201900-
SOUTHERN NEVADA-UTAH

CITY           SKY/WX    TMP DP  RH WIND       PRES   REMARKS
LAS VEGAS      PTSUNNY   84  40  21 VRB5      29.83F
6HR MIN TEMP:  70; 6HR MAX TEMP:  85;

SALT LAKE CITY MOSUNNY   76  40  27 CALM      29.93F
6HR MIN TEMP:  58; 6HR MAX TEMP:  76;

$$

NMZ009-TXZ055-201900-
NEW MEXICO-WEST TEXAS

CITY           SKY/WX    TMP DP  RH WIND       PRES   REMARKS
ALBUQUERQUE    MOSUNNY   70  40  33 SE8G21    30.15F
6HR MIN TEMP:  56; 6HR MAX TEMP:  70;

EL PASO        SUNNY     81  44  27 SE13G22   30.05F
6HR MIN TEMP:  62; 6HR MAX TEMP:  81;

$$


........................KEY........................
SKY/WX - SKY CONDITION/WEATHER
TMP    - TEMPERATURE IN FAHRENHEIT
DP     - DEW POINT IN FAHRENHEIT
RH     - RELATIVE HUMIDITY IN PERCENT
WIND   - DIRECTION AND SPEED IN MILES PER HOUR (MPH)
VRB    - VARIABLE WIND DIRECTION
PRES   - MEAN SEA LEVEL PRESSURE IN INCHES OF MERCURY
         F - FALLING PRESSURE   R - RISING PRESSURE
         S - STEADY PRESSURE
VSB    - VISIBILITY IN MILES
HX     - HEAT INDEX IN FAHRENHEIT
WCI    - WIND CHILL INDEX IN FAHRENHEIT
TC     - TEMPERATURE IN CELSIUS WHICH IS ALSO KNOWN AS
         TEMPERATURE IN CENTIGRADE
AFB    - AIR FORCE BASE
         LUKE AFB IS LUKE AIR FORCE BASE
         DAVIS-MONTHAN IS DAVIS-MONTHAN AIR FORCE BASE
NAS    - NAVAL AIR STATION
         EL CENTRO NAS IS EL CENTRO NAVAL AIR STATION
N/A    - NOT AVAILABLE





USA.gov is the U.S. government's official web portal to all federal, state and local government web resources and services.